This demonstration page uses our WeatherBlox Daily Observations layout. Learn more.

Hourly Observations for October 20, 2018

Temp ( °F °C ) Dew Point ( °F °C ) Humidity (%) Winds ( mph kmh ) Pressure ( in mb ) Visibility ( mi km ) Precip ( " mm )
12:15 am 00:15 Clear 40 4.7 33 0.7 76 76 WNW 5 7 30.33 1027 10 16.09344 0 0
12:35 am 00:35 Clear 42 5.7 33 0.8 71 71 WNW 5 7 30.3 1026 10 16.09344 0 0
12:55 am 00:55 Clear 42 5.3 33 0.7 73 73 WNW 8 13 30.3 1026 10 16.09344 0 0
1:15 am 01:15 Clear 42 5.6 33 0.6 71 71 WNW 7 11 30.3 1026 10 16.09344 0 0
1:35 am 01:35 Clear 43 6 33 0.5 68 68 WNW 8 13 30.3 1026 10 16.09344 0 0
1:55 am 01:55 Clear 42 5.8 33 0.3 68 68 WNW 7 11 30.33 1027 10 16.09344 0 0
2:15 am 02:15 Clear 41 5.2 32 0.2 70 70 WNW 7 11 30.36 1028 10 16.09344 0 0
2:35 am 02:35 Clear 40 4.5 32 0.2 74 74 WNW 7 11 30.36 1028 10 16.09344 0 0
2:55 am 02:55 Clear 41 4.8 32 0.1 72 72 WNW 5 7 30.36 1028 10 16.09344 0 0
3:15 am 03:15 Clear 43 5.9 32 0.1 67 67 WNW 8 13 30.33 1027 10 16.09344 0 0
3:35 am 03:35 Clear 42 5.7 32 0.1 68 68 WNW 8 13 30.33 1027 10 16.09344 0 0
3:55 am 03:55 Clear 42 5.8 32 0 67 67 WNW 8 13 30.33 1027 10 16.09344 0 0
4:15 am 04:15 Clear 41 4.9 32 0 71 71 WNW 7 11 30.36 1028 10 16.09344 0 0
4:35 am 04:35 Clear 41 5 32 0 70 70 WNW 8 13 30.36 1028 10 16.09344 0 0
4:55 am 04:55 Clear 40 4.5 32 0 73 73 WNW 7 11 30.36 1028 10 16.09344 0 0
5:15 am 05:15 Clear 39 4.1 32 0 75 75 NW 6 9 30.36 1028 10 16.09344 0 0
5:35 am 05:35 Clear 39 3.8 32 0 77 77 WNW 7 11 30.36 1028 10 16.09344 0 0
5:55 am 05:55 Clear 38 3.5 32 0 78 78 NW 8 13 30.39 1029 10 16.09344 0 0
6:15 am 06:15 Clear 37 3 32 0 81 81 NW 8 13 30.39 1029 10 16.09344 0 0
6:35 am 06:35 Clear 38 3.1 32 0.1 81 81 WNW 9 15 30.39 1029 10 16.09344 0 0
6:55 am 06:55 Clear 37 2.6 32 0.1 84 84 WNW 7 11 30.39 1029 10 16.09344 0 0
7:15 am 07:15 Clear 37 2.5 32 0 84 84 NW 8 13 30.39 1029 10 16.09344 0 0
7:35 am 07:35 Clear 37 2.8 32 0.1 83 83 WNW 8 13 30.42 1030 10 16.09344 0 0
7:55 am 07:55 Sunny 37 3 32 0 81 81 WNW 10 17 30.42 1030 10 16.09344 0 0
8:15 am 08:15 Sunny 38 3.1 32 0 80 80 WNW 7 11 30.42 1030 10 16.09344 0 0
8:35 am 08:35 Sunny 38 3.4 32 0.2 80 80 NW 8 13 30.42 1030 10 16.09344 0 0
8:55 am 08:55 Sunny 40 4.2 34 1 80 80 NW 7 11 30.42 1030 10 16.09344 0 0
9:15 am 09:15 Sunny 43 5.9 34 1.3 73 73 NW 7 11 30.45 1031 10 16.09344 0 0
9:35 am 09:35 Sunny 46 7.6 35 1.5 66 66 NNW 7 11 30.42 1030 10 16.09344 0 0
9:55 am 09:55 Sunny 48 9.1 34 1 57 57 NNW 8 13 30.42 1030 10 16.09344 0 0
10:15 am 10:15 Sunny 50 10.2 33 0.7 52 52 N 9 15 30.39 1029 10 16.09344 0 0
10:35 am 10:35 Sunny 53 11.5 33 0.3 46 46 NNW 10 17 30.39 1029 10 16.09344 0 0
10:55 am 10:55 Sunny 54 12.2 32 0.2 44 44 N 12 19 30.39 1029 10 16.09344 0 0
11:15 am 11:15 Sunny 55 12.9 32 0 41 41 N 10 17 30.36 1028 10 16.09344 0 0
11:35 am 11:35 Sunny 56 13.3 32 0.2 41 41 N 12 19 30.36 1028 10 16.09344 0 0
11:55 am 11:55 Sunny 57 14 33 0.5 40 40 NNW 12 19 30.36 1028 10 16.09344 0 0
12:15 pm 12:15 Sunny 58 14.5 32 -0.1 37 37 NNW 13 20 30.36 1028 10 16.09344 0 0
12:35 pm 12:35 Sunny 60 15.3 32 0.2 36 36 N 12 19 30.36 1028 10 16.09344 0 0
12:55 pm 12:55 Sunny 60 15.4 32 0 35 35 NNE 7 11 30.36 1028 10 16.09344 0 0
1:15 pm 13:15 Sunny 61 15.9 32 0.1 34 34 N 10 17 30.36 1028 10 16.09344 0 0
1:35 pm 13:35 Sunny 61 16.3 32 0 33 33 N 13 20 30.3 1026 10 16.09344 0 0
1:55 pm 13:55 Sunny 62 16.5 32 0.1 33 33 N 10 17 30.3 1026 10 16.09344 0 0
2:15 pm 14:15 Sunny 62 16.6 33 0.4 34 34 N 9 15 30.3 1026 10 16.09344 0 0
2:35 pm 14:35 Sunny 63 17 33 0.6 33 33 N 12 19 30.3 1026 10 16.09344 0 0
2:55 pm 14:55 Sunny 62 16.5 33 0.3 34 34 N 7 11 30.3 1026 10 16.09344 0 0
3:15 pm 15:15 Sunny 63 17 33 0.8 34 34 N 7 11 30.3 1026 10 16.09344 0 0
3:35 pm 15:35 Sunny 62 16.8 33 0.5 33 33 NNE 10 17 30.3 1026 10 16.09344 0 0
3:55 pm 15:55 Sunny 62 16.5 33 0.4 34 34 N 6 9 30.3 1026 10 16.09344 0 0
4:15 pm 16:15 Sunny 62 16.6 33 0.8 35 35 N 8 13 30.3 1026 10 16.09344 0 0
4:35 pm 16:35 Sunny 63 17 34 1 34 34 N 9 15 30.27 1025 10 16.09344 0 0
4:55 pm 16:55 Sunny 62 16.7 33 0.6 34 34 NNE 7 11 30.27 1025 10 16.09344 0 0
5:15 pm 17:15 Sunny 62 16.5 34 0.9 35 35 NE 6 9 30.27 1025 10 16.09344 0 0
5:35 pm 17:35 Sunny 61 16 34 0.9 36 36 NNE 7 11 30.27 1025 10 16.09344 0 0
5:55 pm 17:55 Sunny 60 15.4 34 0.9 38 38 NE 6 9 30.3 1026 10 16.09344 0 0
6:15 pm 18:15 Sunny 58 14.6 34 1.1 40 40 ENE 3 6 30.3 1026 10 16.09344 0 0
6:35 pm 18:35 Sunny 56 13.5 34 0.9 42 42 E 5 7 30.3 1026 10 16.09344 0 0
6:55 pm 18:55 Clear 54 12.2 32 0.1 44 44 E 6 9 30.3 1026 10 16.09344 0 0
7:15 pm 19:15 Clear 51 10.5 33 0.5 50 50 E 6 9 30.33 1027 10 16.09344 0 0
7:35 pm 19:35 Clear 49 9.5 33 0.5 54 54 E 7 11 30.33 1027 10 16.09344 0 0
7:55 pm 19:55 Clear 49 9.2 33 0.4 54 54 E 8 13 30.33 1027 10 16.09344 0 0
8:15 pm 20:15 Clear 44 6.6 33 0.5 65 65 E 7 11 30.36 1028 10 16.09344 0 0
8:35 pm 20:35 Clear 43 6.1 32 0.1 66 66 ESE 8 13 30.36 1028 10 16.09344 0 0
8:55 pm 20:55 Clear 42 5.8 32 0 67 67 E 8 13 30.36 1028 10 16.09344 0 0
9:15 pm 21:15 Clear 40 4.4 32 0 73 73 ESE 8 13 30.39 1029 10 16.09344 0 0
9:35 pm 21:35 Clear 41 5.2 32 0 69 69 ESE 9 15 30.39 1029 10 16.09344 0 0
9:55 pm 21:55 Clear 40 4.3 31 -0.7 70 70 ESE 8 13 30.39 1029 10 16.09344 0 0
10:15 pm 22:15 Clear 40 4.2 31 -0.8 70 70 SE 8 13 30.39 1029 10 16.09344 0 0
10:35 pm 22:35 Clear 39 3.8 31 -0.8 72 72 SE 8 13 30.39 1029 10 16.09344 0 0
10:55 pm 22:55 Clear 39 3.7 30 -1 72 72 SE 8 13 30.39 1029 10 16.09344 0 0
11:15 pm 23:15 Clear 39 3.8 30 -1.2 70 70 SSE 7 11 30.39 1029 10 16.09344 0 0
11:35 pm 23:35 Clear 39 3.7 29 -1.5 69 69 SSE 8 13 30.39 1029 10 16.09344 0 0
11:55 pm 23:55 Clear 39 3.9 29 -1.4 69 69 SSE 7 11 30.39 1029 10 16.09344 0 0

Powered by AerisWeather